Location: Four Corners
(38.2757°N, 122.4608°W)
Time: 00:54:16
(UTC+00:00)

Cosmos 1980 - Pass Details

Date: 08 December 2019
Orbit: 838 x 849 km, 71.0° (Epoch: 27 January)

Event Time Altitude Azimuth Distance (km) Brightness Sun altitude
Rises 01:29:09 0° 189° (S) 3,372 7.3 -7.9°
Reaches altitude 10° 01:31:37 10° 185° (S) 2,441 6.5 -8.3°
Maximum altitude 01:37:05 57° 108° (ESE) 986 3.8 -9.3°
Drops below altitude 10° 01:42:35 10° 31° (NNE) 2,460 5.7 -10.3°
Enters shadow 01:43:45 - 29° (NNE) 2,901 6.0 -10.5°
